Satellite: AAUSAT2
Catalog number: 32788
Epoch time:      09106.88728749
Element set:     333
Inclination:      097.9489 deg
RA of node:       171.2664 deg
Eccentricity:    0.0014366
Arg of perigee:   229.2033 deg
Mean anomaly:     130.7916 deg
Mean motion:   14.81701313 rev/day
Decay rate:       3.94e-06 rev/day^2
Epoch rev:            5237
Checksum:              320

Satellite: DO-64
Catalog number: 32789
Epoch time:      09105.75990070
Element set:    0348
Inclination:      097.9516 deg
RA of node:       170.2702 deg
Eccentricity:    0.0014727
Arg of perigee:   232.2165 deg
Mean anomaly:     127.7713 deg
Mean motion:   14.81666098 rev/day
Decay rate:       6.13e-06 rev/day^2
Epoch rev:           05220
Checksum:              310

Satellite: CO-66
Catalog number: 32791
Epoch time:      09106.68006150
Element set:     324
Inclination:      097.9474 deg
RA of node:       171.0402 deg
Eccentricity:    0.0014975
Arg of perigee:   229.9292 deg
Mean anomaly:     130.0620 deg
Mean motion:   14.81414546 rev/day
Decay rate:       2.98e-06 rev/day^2
Epoch rev:            5230
Checksum:              290

Satellite: RS-30
Catalog number: 32953
Epoch time:      09106.61513672
Element set:     281
Inclination:      082.4976 deg
RA of node:       294.9087 deg
Eccentricity:    0.0018533
Arg of perigee:   315.3842 deg
Mean anomaly:     044.5744 deg
Mean motion:   12.43000373 rev/day
Decay rate:        1.0e-07 rev/day^2
Epoch rev:            4074
Checksum:              282

/EX





More information about the Keps mailing list